Location: *
(46.1866°S, 178.5290°W)
Time: 12:56:27
(UTC+00:00)

CZ-4B R/B - Pass Details

Date: 19 May 2021
Orbit: 809 x 881 km, 99.1° (Epoch: 21 June)

Event Time Altitude Azimuth Distance (km) Brightness Sun altitude
Exits shadow 06:18:02 24° 141° (SE) 1,646 4.3 -18.8°
Maximum altitude 06:20:57 46° 81° (E) 1,095 3.3 -19.3°
Drops below altitude 10° 06:26:03 10° 7° (N) 2,408 5.6 -20.2°
Sets 06:28:28 0° 1° (N) 3,337 6.4 -20.6°
